Meteo Giornale » Osservazioni meteo Italia » Bari-Palese Macchie

ore: 08:50 - Osservazioni Meteo Bari-Palese Macchie
Lat. 41° 8' N Lon. 16° 47' E Alt. 34 metri s.l.m.

nebbia Europe/Rome

13 °C

Nebbia

Temp. 24 Ore

11 °C

21 °C

Nord

1.8 Km/h

Dew point 13 °C

Umidità 100 %

Visibilità  0.4 Km

Il sole sorge alle ore 07:07

Il sole tramonta alle ore 18:08

Data e Ora Cielo e Fenomeni T °C DP °C Um. % Pres. hPa Vis. km Vento km/h
Oggi h: 08:50 nebbia Nebbia 13 13 100 1020 0.4 N 1.8
Oggi h: 08:20 nebbia Nebbia 12 12 100 1020 0.2 N 3.7
Oggi h: 07:50 nebbia Nebbia 11 11 100 1020 0.2 N 5.5
Oggi h: 07:20 nebbia Nebbia 11 11 100 1020 0.8 O 7.4
Oggi h: 06:50 sereno Sereno 11 11 100 1020 8 N 5.5
Oggi h: 06:20 sereno Sereno 11 11 100 1020 9 SO 9.3
Oggi h: 05:50 sereno Sereno 12 12 100 1020 9 SO 9.3
Oggi h: 05:20 nebbia Nebbia 13 13 100 1021 0.15 SO 9.3
Oggi h: 04:50 nebbia Nebbia 13 13 100 1021 0.15 SO 11.1
Oggi h: 04:20 nebbia Nebbia 14 14 100 1021 0.3 SO 11.1
Oggi h: 03:50 nebbia Nebbia 14 14 100 1021 0.3 SO 7.4
Oggi h: 03:20 foschia Foschia 15 15 100 1021 2 SO 9.3
Oggi h: 02:50 foschia Foschia 15 15 100 1022 0.8 SO 9.3
Oggi h: 02:20 nebbia Nebbia 15 15 100 1022 0.8 SO 7.4
Oggi h: 01:50 nebbia Nebbia 15 15 100 1022 0.4 O/SO 7.4
Oggi h: 01:20 molto_nuvoloso Molto Nuvoloso 14 14 100 1022 6 O 7.4
Oggi h: 00:50 nuvoloso Nuvoloso 13 13 100 1022 7 O/SO 9.3
Oggi h: 00:20 sereno Sereno 13 13 100 1022 7 O/SO 9.3
Ieri h: 23:50 sereno Sereno 13 13 100 1022 7 O 7.4
Ieri h: 23:20 sereno Sereno 13 13 100 1022 7 N 5.5
Ieri h: 22:50 sereno Sereno 13 13 100 1022 7 SO 7.4
Ieri h: 22:20 sereno Sereno 13 13 100 1022 6 SO 7.4
Ieri h: 21:50 sereno Sereno 14 14 100 1022 6 SO 7.4
Ieri h: 21:20 foschia Foschia 15 15 100 1022 5 SO 9.3
Ieri h: 20:50 sereno Sereno 15 15 100 1023 6 SO 9.3
Ieri h: 20:20 sereno Sereno 15 15 100 1023 6 N 5.5
Ieri h: 19:50 sereno Sereno 15 15 100 1023 6 N 3.7
Ieri h: 19:20 sereno Sereno 16 16 100 1023 6 N 0
Ieri h: 18:50 foschia Foschia 17 17 100 1023 5 N 3.7
Ieri h: 18:20 foschia Foschia 18 17 93 1023 5 N 5.5
Ieri h: 17:50 sereno Sereno 19 16 82 1023 6 N 5.5
Ieri h: 17:20 sereno Sereno 19 16 82 1023 6 E/NE 7.4
Ieri h: 16:50 sereno Sereno 20 16 77 1023 6 E 9.3
Ieri h: 16:20 sereno Sereno 20 16 77 1023 8 E/NE 11.1
Ieri h: 15:50 sereno Sereno 20 16 77 1023 8 E/NE 9.3
Ieri h: 15:20 sereno Sereno 20 15 72 1024 10 E/NE 9.3
Ieri h: 14:50 sereno Sereno 21 15 68 1024 10 E 9.3
Ieri h: 14:20 sereno Sereno 21 16 73 1024 10 E/NE 11.1
Ieri h: 13:50 sereno Sereno 20 15 72 1025 10 NE 9.3
Ieri h: 13:20 sereno Sereno 20 15 72 1025 10 NE 9.3
Ieri h: 12:50 sereno Sereno 20 14 68 1025 10 NE 9.3
Ieri h: 12:20 sereno Sereno 20 15 72 1026 10 NE 9.3
Ieri h: 11:50 sereno Sereno 21 15 68 1026 10 N 5.5
Ieri h: 11:20 sereno Sereno 20 14 68 1026 10 N 5.5
Ieri h: 10:50 sereno Sereno 20 13 64 1026 10 N 5.5
Ieri h: 10:20 sereno Sereno 20 13 64 1026 10 N 3.7
Ieri h: 09:50 sereno Sereno 19 14 72 1026 10 N 3.7